Flag for U.S.A. Weather past 2 weeks in Pontiac, Michigan, U.S.A.

62 °F

Mostly cloudy.

Feels Like: 62 °F
Forecast: 47 / 63 °F
Wind: 9 mph from Northwest

Location: Oakland County International Airport

Current Time: Oct 9, 2015 at 5:07:41 AM

Latest Report: Oct 9, 2015 at 3:53 AM

Visibility: 8 mi

Pressure: 29.83 "Hg

Humidity: 93%

Dew point: 60 °F

Location of PontiacLocation

Historic Weather in Pontiac — Graph


Pontiac temperature yesterday

Maximum temperature yesterday: 72 °F (at 3:53 PM)
Minimum temperature yesterday: 43 °F (at 4:53 AM)
Average temperature yesterday: 58 °F

Past Weeks' High & Low Weather Summary

High78 °F (Sep 24, 2:53 PM)100% (Sep 24, 4:53 AM)30.40 "Hg (Sep 24, 4:53 AM)
Low43 °F (Oct 8, 4:53 AM)35% (Sep 24, 2:53 PM)29.83 "Hg (Oct 9, 1:53 AM)
Average59 °F77%30.17 "Hg
* Reported Sep 24 3:53 AM — Oct 9 3:53 AM, Pontiac, Weather by CustomWeather, © 2015

Note: Actual official high and low records may vary slightly from our data, if they occured in-between our weather recording intervals... More about our weather records


Pontiac weather history for previous 24 hours

Time TempWeatherWind HumidityBarometerVisibility
3:53 AM
Fri, Oct 9
62 °FMostly cloudy.9 mph93%29.83 "Hg8 mi
3:01 AM62 °FMostly cloudy.7 mph93%29.84 "Hg8 mi
1:53 AM62 °FLight rain. Mostly cloudy.7 mph96%29.83 "Hg8 mi
12:53 AM62 °FLight rain. Overcast.5 mph93%29.84 "Hg7 mi
11:53 PM
Thu, Oct 8
63 °FLight rain. Mostly cloudy.6 mph87%29.86 "Hg8 mi
10:53 PM64 °FMostly cloudy.No wind78%29.85 "Hg10 mi
9:53 PM64 °FOvercast.5 mph75%29.85 "Hg10 mi
8:53 PM65 °FPartly cloudy.5 mph73%29.87 "Hg10 mi
7:53 PM66 °FBroken clouds.6 mph70%29.89 "Hg10 mi
6:53 PM68 °FDrizzle. Partly sunny.7 mph68%29.89 "Hg10 mi
5:53 PM70 °FMostly cloudy.7 mph61%29.90 "Hg10 mi
4:53 PM71 °FPartly sunny.10 mph59%29.93 "Hg10 mi
3:53 PM72 °FPartly sunny.8 mph55%29.94 "Hg10 mi
2:53 PM70 °FPartly sunny.8 mph57%29.97 "Hg10 mi
1:53 PM68 °FPartly sunny.8 mph61%30.01 "Hg10 mi
12:53 PM66 °FPartly sunny.10 mph63%30.05 "Hg10 mi
11:53 AM62 °FBroken clouds.7 mph73%30.08 "Hg10 mi
10:53 AM58 °FOvercast.8 mph78%30.11 "Hg10 mi
9:53 AM54 °FPartly sunny.7 mph77%30.11 "Hg10 mi
8:53 AM50 °FPartly sunny.3 mph86%30.13 "Hg10 mi
7:53 AM44 °FPassing clouds.No wind93%30.12 "Hg10 mi
6:53 AM44 °FPassing clouds.No wind93%30.13 "Hg10 mi
5:53 AM45 °FPassing clouds.No wind93%30.13 "Hg7 mi
5:02 AM43 °FFog.No wind97%30.13 "Hg3 mi
Weather by CustomWeather, © 2015

See weather overviewHow to use our weather pages